Weather History for EGUL - October, 2012

Change the Weather History Date:

Friday, October 12, 2012

  Actual Average (EGSC) Record (EGSC)
Temperature  
Mean Temperature 52 °F -  
Max Temperature 58 °F 58 °F 71 °F (2001)
Min Temperature 43 °F 47 °F 39 °F (1999)
Degree Days  
Heating Degree Days 14    
Growing Degree Days 2 (Base 50)    
Moisture  
Dew Point 51 °F    
Average Humidity 89    
Maximum Humidity 100    
Minimum Humidity 55    
Precipitation  
Precipitation 0.02 in - - ()
Sea Level Pressure  
Sea Level Pressure 29.54 in    
Wind  
Wind Speed 11 mph ()    
Max Wind Speed 22 mph    
Max Gust Speed 29 mph    
Visibility 6.0 miles    
Events Rain    
Averages and records for this station are not official NWS values.
T = Trace of Precipitation, MM = Missing Value Source: Averaged Metar Reports

Daily Weather History Graph

Daily Weather History Graph

Search for Another Location

Airport or City:

Trip Planner

Search our weather history database for the weather conditions in past years. The results will help you decide how hot, cold, wet, or windy it might be!

Date:

Astronomy

Oct. 12, 2012 Rise Set
Actual Time 7:18 AM BST 6:09 PM BST
Civil Twilight 6:44 AM BST 6:43 PM BST
Nautical Twilight 6:04 AM BST 7:22 PM BST
Astronomical Twilight 5:24 AM BST 8:02 PM BST
Moon 3:21 AM BST (10/12) 4:28 PM BST (10/12)
Length of Visible Light 11h 59m
Length of Day
10h 50m
Waning Crescent, 12% of the Moon is Illuminated
Oct 12
Waning Crescent
Oct 15
New
Oct 22
First Quarter
Oct 29
Full
Nov 7
Last Quarter

Hourly Weather History & Observations

Time (BST) Temp. Windchill Dew Point Humidity Pressure Visibility Wind Dir Wind Speed Gust Speed Precip Events Conditions
12:02 AM 57.2 °F - 57.2 °F 100% 29.46 in 6.2 mi SE 8.1 mph - N/A   Overcast
12:28 AM 57.2 °F - 57.2 °F 100% 29.45 in 6.2 mi SE 9.2 mph - N/A   Overcast
12:44 AM 59.0 °F - 57.2 °F 94% 29.45 in 6.2 mi SE 9.2 mph - N/A   Overcast
12:51 AM 59.0 °F - 57.2 °F 94% 29.45 in 6.2 mi SE 9.2 mph - N/A   Overcast
12:54 AM 59.0 °F - 57.2 °F 94% 29.45 in 6.2 mi SE 6.9 mph - N/A   Light Drizzle
12:56 AM 59.0 °F - 57.2 °F 94% 29.45 in 6.2 mi SSE 6.9 mph - N/A   Light Drizzle
12:58 AM 59.0 °F - 57.2 °F 94% 29.46 in 6.2 mi SSE 8.1 mph - 0.00 in   Light Drizzle
1:00 AM 59.0 °F - 57.2 °F 94% 29.45 in 6.2 mi SSE 9.2 mph - N/A   Light Drizzle
1:01 AM 59.0 °F - 57.2 °F 94% 29.44 in 6.2 mi SSE 8.1 mph - N/A   Light Drizzle
1:04 AM 59.0 °F - 57.2 °F 94% 29.44 in 5.0 mi SSE 9.2 mph - N/A   Light Drizzle
1:12 AM 59.0 °F - 57.2 °F 94% 29.44 in 6.2 mi South 8.1 mph - N/A   Light Drizzle
1:13 AM 59.0 °F - 57.2 °F 94% 29.44 in 6.2 mi SSE 8.1 mph - N/A   Overcast
1:18 AM 59.0 °F - 57.2 °F 94% 29.44 in 6.2 mi SSE 9.2 mph - N/A   Overcast
1:28 AM 59.0 °F - 57.2 °F 94% 29.44 in 6.2 mi South 8.1 mph - N/A   Overcast
1:31 AM 59.0 °F - 57.2 °F 94% 29.44 in 6.2 mi South 8.1 mph - N/A   Overcast
1:34 AM 59.0 °F - 57.2 °F 94% 29.44 in 6.2 mi South 8.1 mph - N/A   Overcast
1:38 AM 59.0 °F - 57.2 °F 94% 29.44 in 6.2 mi South 9.2 mph - N/A   Overcast
1:44 AM 59.0 °F - 57.2 °F 94% 29.44 in 6.2 mi South 10.4 mph - N/A   Overcast
1:49 AM 59.0 °F - 57.2 °F 94% 29.44 in 6.2 mi South 11.5 mph - N/A   Overcast
1:50 AM 59.0 °F - 57.2 °F 94% 29.44 in 6.2 mi South 10.4 mph - N/A   Overcast
1:58 AM 58.3 °F - 56.8 °F 95% 29.45 in 6.2 mi South 9.2 mph - 0.01 in   Overcast
2:58 AM 57.7 °F - 56.1 °F 94% 29.46 in 6.2 mi SW 12.7 mph - N/A   Overcast
3:02 AM 57.2 °F - 55.4 °F 94% 29.45 in 6.2 mi SW 13.8 mph - N/A   Overcast
3:04 AM 57.2 °F - 55.4 °F 94% 29.44 in 6.2 mi SW 15.0 mph - N/A Rain Light Rain
3:06 AM 57.2 °F - 55.4 °F 94% 29.44 in 6.2 mi SW 16.1 mph - N/A Rain Light Rain
3:10 AM 57.2 °F - 55.4 °F 94% 29.45 in 5.6 mi SW 15.0 mph - N/A Rain Light Rain
3:14 AM 57.2 °F - 55.4 °F 94% 29.45 in 5.0 mi SW 15.0 mph - N/A Rain Light Rain
3:21 AM 57.2 °F - 55.4 °F 94% 29.45 in 5.0 mi SW 15.0 mph - N/A   Light Drizzle
3:22 AM 57.2 °F - 55.4 °F 94% 29.45 in 5.6 mi SW 15.0 mph - N/A   Light Drizzle
3:33 AM 57.2 °F - 55.4 °F 94% 29.45 in 6.2 mi SW 15.0 mph - N/A   Overcast
3:51 AM 55.4 °F - 53.6 °F 94% 29.45 in 6.2 mi WSW 16.1 mph - N/A   Overcast
3:58 AM 55.2 °F - 53.6 °F 94% 29.46 in 6.2 mi WSW 18.4 mph - 0.00 in   Overcast
4:40 AM 53.6 °F - 51.8 °F 94% 29.46 in 6.2 mi SW 13.8 mph - N/A   Overcast
4:58 AM 54.0 °F - 52.0 °F 93% 29.48 in 6.2 mi SW 12.7 mph - N/A   Overcast
5:05 AM 53.6 °F - 51.8 °F 94% 29.47 in 6.2 mi WSW 13.8 mph - N/A   Overcast
5:48 AM 53.6 °F - 51.8 °F 94% 29.48 in 6.2 mi WSW 11.5 mph - N/A   Overcast
5:50 AM 53.6 °F - 51.8 °F 94% 29.48 in 6.2 mi WSW 12.7 mph - N/A   Overcast
5:53 AM 53.6 °F - 51.8 °F 94% 29.49 in 6.2 mi WSW 12.7 mph - N/A   Light Drizzle
5:58 AM 53.6 °F - 52.0 °F 94% 29.50 in 6.2 mi WSW 12.7 mph - 0.00 in   Light Drizzle
6:07 AM 53.6 °F - 51.8 °F 94% 29.49 in 6.2 mi WSW 11.5 mph - N/A Rain Light Rain
6:14 AM 53.6 °F - 51.8 °F 94% 29.49 in 6.2 mi SW 11.5 mph - N/A   Overcast
6:20 AM 53.6 °F - 51.8 °F 94% 29.49 in 6.2 mi WSW 12.7 mph - N/A   Overcast
6:32 AM 53.6 °F - 51.8 °F 94% 29.50 in 6.2 mi WSW 12.7 mph - N/A   Overcast
6:58 AM 53.2 °F - 51.4 °F 94% 29.52 in 6.2 mi WSW 11.5 mph - 0.00 in   Overcast
7:13 AM 53.6 °F - 51.8 °F 94% 29.52 in 6.2 mi WSW 12.7 mph - N/A   Overcast
7:26 AM 53.6 °F - 51.8 °F 94% 29.52 in 6.2 mi WSW 13.8 mph - N/A   Overcast
7:58 AM 52.2 °F - 50.0 °F 92% 29.55 in 6.2 mi West 15.0 mph - N/A   Overcast
8:01 AM 51.8 °F - 50.0 °F 94% 29.54 in 6.2 mi West 15.0 mph - N/A   Light Drizzle
8:15 AM 51.8 °F - 50.0 °F 94% 29.55 in 3.7 mi West 13.8 mph 21.9 mph N/A Rain Light Rain
8:17 AM 51.8 °F - 50.0 °F 94% 29.55 in 3.7 mi West 13.8 mph 21.9 mph N/A Rain Light Rain
8:18 AM 51.8 °F - 50.0 °F 94% 29.55 in 3.7 mi West 15.0 mph 21.9 mph N/A Rain Light Rain
8:21 AM 51.8 °F - 50.0 °F 94% 29.55 in 5.6 mi West 16.1 mph 21.9 mph N/A Rain Light Rain
8:25 AM 51.8 °F - 50.0 °F 94% 29.56 in 6.2 mi West 15.0 mph - N/A Rain Light Rain
8:37 AM 51.8 °F - 48.2 °F 88% 29.56 in 6.2 mi West 18.4 mph - N/A   Overcast
8:38 AM 51.8 °F - 48.2 °F 88% 29.56 in 6.2 mi West 18.4 mph - N/A   Overcast
8:40 AM 51.8 °F - 48.2 °F 88% 29.56 in 6.2 mi West 16.1 mph - N/A   Light Drizzle
8:58 AM 51.3 °F - 48.4 °F 90% 29.58 in 6.2 mi West 12.7 mph - 0.01 in   Light Drizzle
9:11 AM 50.0 °F - 48.2 °F 94% 29.58 in 6.2 mi West 16.1 mph 25.3 mph N/A Rain Light Rain
9:23 AM 50.0 °F - 48.2 °F 94% 29.59 in 6.2 mi West 18.4 mph - N/A   Light Drizzle
9:46 AM 50.0 °F - 46.4 °F 87% 29.60 in 6.2 mi West 16.1 mph - N/A   Light Drizzle
9:48 AM 50.0 °F - 46.4 °F 87% 29.61 in 6.2 mi West 16.1 mph - N/A   Light Drizzle
9:51 AM 50.0 °F - 46.4 °F 87% 29.61 in 6.2 mi West 17.3 mph - N/A   Light Drizzle
9:54 AM 50.0 °F - 46.4 °F 87% 29.61 in 6.2 mi West 15.0 mph - N/A   Light Drizzle
9:58 AM 50.5 °F - 46.9 °F 87% 29.62 in 6.2 mi West 16.1 mph - 0.00 in   Light Drizzle
10:06 AM 50.0 °F - 46.4 °F 87% 29.62 in 6.2 mi West 18.4 mph 24.2 mph N/A Rain Light Rain
10:07 AM 50.0 °F - 46.4 °F 87% 29.62 in 6.2 mi West 18.4 mph 24.2 mph N/A Rain Light Rain
10:08 AM 50.0 °F - 46.4 °F 87% 29.62 in 6.2 mi West 17.3 mph 24.2 mph N/A Rain Light Rain
10:22 AM 51.8 °F - 46.4 °F 82% 29.62 in 6.2 mi West 17.3 mph 24.2 mph N/A   Mostly Cloudy
10:24 AM 51.8 °F - 46.4 °F 82% 29.63 in 6.2 mi West 20.7 mph 25.3 mph N/A Rain Light Rain
10:39 AM 51.8 °F - 46.4 °F 82% 29.63 in 6.2 mi West 16.1 mph 25.3 mph N/A   Mostly Cloudy
10:42 AM 51.8 °F - 46.4 °F 82% 29.63 in 6.2 mi West 20.7 mph 26.5 mph N/A   Light Drizzle
10:52 AM 51.8 °F - 46.4 °F 82% 29.63 in 6.2 mi West 17.3 mph 24.2 mph N/A   Overcast
10:58 AM 51.4 °F - 45.7 °F 81% 29.65 in 6.2 mi West 16.1 mph 24.2 mph 0.00 in   Overcast
11:58 AM 54.3 °F - 44.4 °F 69% 29.66 in 6.2 mi West 20.7 mph 26.5 mph N/A   Scattered Clouds
12:58 PM 54.7 °F - 41.0 °F 60% 29.67 in 6.2 mi West 21.9 mph 28.8 mph N/A   Clear
1:58 PM 56.1 °F - 40.5 °F 56% 29.68 in 6.2 mi West 21.9 mph 26.5 mph N/A   Mostly Cloudy
2:58 PM 56.3 °F - 40.3 °F 55% 29.69 in 6.2 mi West 17.3 mph 28.8 mph N/A   Mostly Cloudy
3:58 PM 54.7 °F - 40.5 °F 59% 29.70 in 6.2 mi West 15.0 mph - N/A   Scattered Clouds
4:58 PM 51.6 °F - 39.9 °F 64% 29.72 in 6.2 mi WSW 15.0 mph - N/A   Partly Cloudy
5:58 PM 49.6 °F - 40.3 °F 70% 29.74 in 6.2 mi SW 11.5 mph - N/A   Clear
7:58 PM 46.9 °F - 40.3 °F 78% 29.75 in 6.2 mi SSW 9.2 mph - N/A   Clear
8:58 PM 45.5 °F 40.8 °F 39.7 °F 80% 29.75 in 6.2 mi SSW 9.2 mph - N/A   Clear
9:58 PM 45.1 °F 40.8 °F 39.4 °F 80% 29.76 in 6.2 mi SSW 8.1 mph - N/A   Clear
10:58 PM 44.1 °F 40.1 °F 39.2 °F 83% 29.75 in 6.2 mi SSW 6.9 mph - N/A   Clear
11:58 PM 43.3 °F 41.7 °F 39.2 °F 85% 29.75 in 6.2 mi SSE 3.5 mph - N/A   Clear